Location: Cedar Brake
(32.2526°N, 97.8459°W)
Time: 17:25:58
(UTC+00:00)

ADEOS II - Pass Details

Date: 22 April 2026
Orbit: 793 x 795 km, 98.8° (Epoch: 9 May)

Event Time Altitude Azimuth Distance (km) Brightness Sun altitude
Rises 10:32:41 0° 355° (N) 3,297 5.6 -16.9°
Reaches altitude 10° 10:35:31 10° 340° (NNW) 2,364 4.6 -16.4°
Maximum altitude 10:39:20 21° 293° (WNW) 1,711 3.4 -15.7°
Enters shadow 10:40:33 20° 274° (W) 1,785 3.4 -15.4°
